Algona, IA

7:56 AM CST on December 18, 2017 (GMT -0600)
Algona Municipal

Weather History for KAXA - August, 2015

Change the Weather History Date:

Friday, August 21, 2015

  Actual Average Record
Temperature  
Mean Temperature 69 °F -  
Max Temperature 78 °F 78 °F 87 °F (2010)
Min Temperature 60 °F 59 °F 39 °F (2004)
Cooling Degree Days 4    
Growing Degree Days 19 (Base 50)    
Moisture  
Dew Point 60 °F    
Average Humidity 73    
Maximum Humidity 94    
Minimum Humidity 51    
Precipitation  
Precipitation 0.00 in - - ()
Sea Level Pressure  
Sea Level Pressure 29.91 in    
Wind  
Wind Speed 14 mph (South)    
Max Wind Speed 26 mph    
Max Gust Speed 33 mph    
Visibility 10 miles    
Events      
Averages and records for this station are not official NWS values.
T = Trace of Precipitation, MM = Missing Value Source: NWS Daily Summary

Daily Weather History Graph

Daily Weather History Graph

Search for Another Location

Airport or City:

Trip Planner

Search our weather history database for the weather conditions in past years. The results will help you decide how hot, cold, wet, or windy it might be!

Date:

Astronomy

Aug. 21, 2015 Rise Set
Actual Time 6:29 AM CDT 8:10 PM CDT
Civil Twilight 5:58 AM CDT 8:40 PM CDT
Nautical Twilight 5:22 AM CDT 9:17 PM CDT
Astronomical Twilight 4:42 AM CDT 9:56 PM CDT
Moon 1:09 PM CDT (8/21) 11:42 PM CDT (8/21)
Length of Visible Light 14h 41m
Length of Day
13h 41m
Waxing Crescent, 39% of the Moon is Illuminated
Aug 21
Waxing Crescent
Aug 22
First Quarter
Aug 29
Full
Sep 5
Last Quarter
Sep 13
New

Hourly Weather History & Observations

Time (CDT) Temp. Dew Point Humidity Pressure Visibility Wind Dir Wind Speed Gust Speed Precip Events Conditions
12:15 AM 64.4 °F 59.0 °F 83% 29.93 in 10.0 mi SE 9.2 mph 16.1 mph N/A   Mostly Cloudy
12:35 AM 62.6 °F 57.2 °F 82% 29.93 in 10.0 mi SE 9.2 mph - N/A   Clear
12:55 AM 62.6 °F 57.2 °F 82% 29.93 in 10.0 mi SE 9.2 mph - N/A   Partly Cloudy
1:15 AM 62.6 °F 59.0 °F 88% 29.93 in 10.0 mi SE 6.9 mph - N/A   Mostly Cloudy
1:35 AM 62.6 °F 59.0 °F 88% 29.92 in 10.0 mi SSE 8.1 mph - N/A   Overcast
1:55 AM 62.6 °F 59.0 °F 88% 29.92 in 10.0 mi SSE 9.2 mph - N/A   Overcast
2:15 AM 62.6 °F 59.0 °F 88% 29.92 in 10.0 mi SSE 10.4 mph 16.1 mph N/A   Mostly Cloudy
2:35 AM 62.6 °F 57.2 °F 82% 29.92 in 10.0 mi SSE 10.4 mph - N/A   Partly Cloudy
2:55 AM 62.6 °F 57.2 °F 82% 29.91 in 10.0 mi SSE 9.2 mph - N/A   Clear
3:15 AM 62.6 °F 57.2 °F 82% 29.91 in 10.0 mi South 9.2 mph 16.1 mph N/A   Clear
3:35 AM 62.6 °F 57.2 °F 82% 29.90 in 10.0 mi South 11.5 mph - N/A   Clear
3:55 AM 60.8 °F 57.2 °F 88% 29.90 in 10.0 mi South 10.4 mph - N/A   Clear
4:15 AM 60.8 °F 57.2 °F 88% 29.91 in 10.0 mi South 9.2 mph - N/A   Partly Cloudy
4:35 AM 60.8 °F 59.0 °F 94% 29.91 in 10.0 mi South 12.7 mph - N/A   Mostly Cloudy
4:55 AM 60.8 °F 59.0 °F 94% 29.91 in 10.0 mi South 11.5 mph - N/A   Overcast
5:15 AM 60.8 °F 57.2 °F 88% 29.90 in 10.0 mi South 10.4 mph - N/A   Mostly Cloudy
5:35 AM 60.8 °F 57.2 °F 88% 29.91 in 10.0 mi South 12.7 mph - N/A   Partly Cloudy
5:55 AM 60.8 °F 57.2 °F 88% 29.91 in 10.0 mi South 13.8 mph - N/A   Mostly Cloudy
6:15 AM 60.8 °F 59.0 °F 94% 29.91 in 10.0 mi South 13.8 mph 19.6 mph N/A   Overcast
6:35 AM 60.8 °F 59.0 °F 94% 29.91 in 10.0 mi South 13.8 mph - N/A   Overcast
6:55 AM 60.8 °F 59.0 °F 94% 29.91 in 10.0 mi South 15.0 mph 21.9 mph N/A   Overcast
7:15 AM 62.6 °F 57.2 °F 82% 29.92 in 10.0 mi South 16.1 mph 24.2 mph N/A   Mostly Cloudy
7:35 AM 62.6 °F 57.2 °F 82% 29.92 in 10.0 mi South 16.1 mph 21.9 mph N/A   Mostly Cloudy
7:55 AM 62.6 °F 59.0 °F 88% 29.93 in 10.0 mi South 13.8 mph - N/A   Mostly Cloudy
8:15 AM 64.4 °F 57.2 °F 77% 29.93 in 10.0 mi South 11.5 mph 19.6 mph N/A   Scattered Clouds
8:35 AM 66.2 °F 59.0 °F 78% 29.93 in 10.0 mi South 17.3 mph - N/A   Partly Cloudy
8:55 AM 66.2 °F 59.0 °F 78% 29.93 in 10.0 mi South 17.3 mph - N/A   Clear
9:15 AM 68.0 °F 59.0 °F 73% 29.93 in 10.0 mi South 17.3 mph 24.2 mph N/A   Clear
9:35 AM 68.0 °F 57.2 °F 68% 29.92 in 10.0 mi South 23.0 mph - N/A   Clear
9:55 AM 69.8 °F 57.2 °F 64% 29.92 in 10.0 mi South 23.0 mph 28.8 mph N/A   Clear
10:15 AM 69.8 °F 59.0 °F 68% 29.92 in 10.0 mi South 19.6 mph 25.3 mph N/A   Clear
10:35 AM 71.6 °F 59.0 °F 64% 29.92 in 10.0 mi South 21.9 mph 28.8 mph N/A   Clear
10:55 AM 71.6 °F 59.0 °F 64% 29.92 in 10.0 mi South 19.6 mph 26.5 mph N/A   Clear
11:15 AM 73.4 °F 60.8 °F 65% 29.92 in 10.0 mi South 19.6 mph 28.8 mph N/A   Partly Cloudy
11:35 AM 73.4 °F 60.8 °F 65% 29.92 in 10.0 mi South 21.9 mph 28.8 mph N/A   Partly Cloudy
11:55 AM 75.2 °F 60.8 °F 61% 29.92 in 10.0 mi South 19.6 mph 31.1 mph N/A   Partly Cloudy
12:15 PM 75.2 °F 60.8 °F 61% 29.92 in 10.0 mi SSW 20.7 mph 27.6 mph N/A   Clear
12:35 PM 77.0 °F 60.8 °F 57% 29.92 in 10.0 mi SSW 24.2 mph - N/A   Clear
12:55 PM 77.0 °F 59.0 °F 54% 29.92 in 10.0 mi SSW 24.2 mph 33.4 mph N/A   Clear
1:15 PM 77.0 °F 60.8 °F 57% 29.91 in 10.0 mi South 26.5 mph 32.2 mph N/A   Clear
1:35 PM 77.0 °F 60.8 °F 57% 29.91 in 10.0 mi SSW 19.6 mph 32.2 mph N/A   Clear
1:55 PM 78.8 °F 60.8 °F 54% 29.90 in 10.0 mi SSW 25.3 mph - N/A   Clear
2:15 PM 78.8 °F 62.6 °F 57% 29.90 in 10.0 mi SSW 19.6 mph 26.5 mph N/A   Clear
2:35 PM 78.8 °F 60.8 °F 54% 29.90 in 10.0 mi SSW 20.7 mph 32.2 mph N/A   Clear
2:55 PM 78.8 °F 62.6 °F 57% 29.90 in 10.0 mi South 24.2 mph - N/A   Clear
3:15 PM 78.8 °F 60.8 °F 54% 29.90 in 10.0 mi SSW 20.7 mph 29.9 mph N/A   Clear
3:35 PM 78.8 °F 62.6 °F 57% 29.89 in 10.0 mi South 21.9 mph 29.9 mph N/A   Clear
3:55 PM 78.8 °F 62.6 °F 57% 29.89 in 10.0 mi South 18.4 mph 28.8 mph N/A   Clear
4:15 PM 78.8 °F 60.8 °F 54% 29.89 in 10.0 mi South 24.2 mph 29.9 mph N/A   Clear
4:35 PM 78.8 °F 60.8 °F 54% 29.89 in 10.0 mi South 20.7 mph 29.9 mph N/A   Clear
4:55 PM 78.8 °F 59.0 °F 51% 29.88 in 10.0 mi South 24.2 mph - N/A   Clear
5:15 PM 78.8 °F 59.0 °F 51% 29.88 in 10.0 mi South 19.6 mph - N/A   Clear
5:35 PM 78.8 °F 59.0 °F 51% 29.88 in 10.0 mi South 24.2 mph 33.4 mph N/A   Clear
5:55 PM 77.0 °F 62.6 °F 61% 29.88 in 10.0 mi South 15.0 mph 25.3 mph N/A   Clear
6:15 PM 77.0 °F 60.8 °F 57% 29.88 in 10.0 mi South 15.0 mph 27.6 mph N/A   Clear
6:35 PM 77.0 °F 59.0 °F 54% 29.88 in 10.0 mi South 17.3 mph 26.5 mph N/A   Clear
6:55 PM 75.2 °F 60.8 °F 61% 29.88 in 10.0 mi South 13.8 mph 19.6 mph N/A   Clear
7:15 PM 73.4 °F 60.8 °F 65% 29.88 in 10.0 mi South 13.8 mph - N/A   Clear
7:35 PM 73.4 °F 60.8 °F 65% 29.88 in 10.0 mi South 13.8 mph - N/A   Clear
7:55 PM 71.6 °F 60.8 °F 69% 29.88 in 10.0 mi South 11.5 mph - N/A   Clear
8:15 PM 71.6 °F 60.8 °F 69% 29.89 in 10.0 mi South 11.5 mph - N/A   Clear
8:35 PM 69.8 °F 60.8 °F 73% 29.89 in 10.0 mi SSE 11.5 mph - N/A   Clear
8:55 PM 69.8 °F 62.6 °F 78% 29.90 in 10.0 mi SSE 10.4 mph - N/A   Clear
9:15 PM 68.0 °F 62.6 °F 83% 29.90 in 10.0 mi SSE 11.5 mph - N/A   Clear
9:35 PM 68.0 °F 62.6 °F 83% 29.91 in 10.0 mi SSE 10.4 mph - N/A   Clear
9:55 PM 68.0 °F 62.6 °F 83% 29.91 in 10.0 mi SSE 10.4 mph - N/A   Clear
10:15 PM 68.0 °F 62.6 °F 83% 29.91 in 10.0 mi SSE 9.2 mph 17.3 mph N/A   Clear
10:35 PM 66.2 °F 60.8 °F 83% 29.91 in 10.0 mi SSE 11.5 mph 19.6 mph N/A   Clear
10:55 PM 66.2 °F 60.8 °F 83% 29.90 in 10.0 mi SSE 12.7 mph 18.4 mph N/A   Clear
11:15 PM 66.2 °F 60.8 °F 83% 29.90 in 10.0 mi SSE 13.8 mph - N/A   Clear
11:35 PM 66.2 °F 60.8 °F 83% 29.90 in 10.0 mi SSE 17.3 mph - N/A   Clear
11:55 PM 66.2 °F 60.8 °F 83% 29.90 in 10.0 mi SSE 12.7 mph - N/A   Clear